Sigonella/Catani, Italy

2:29 PM CET on February 22, 2017 (GMT +0100)
Sigonella Mil

Weather History for LICZ - May, 2013

Change the Weather History Date:

Monday, May 6, 2013

  Actual Average Record
Temperature  
Mean Temperature 72 °F -  
Max Temperature 82 °F 80 °F 97 °F (2015)
Min Temperature 60 °F 55 °F 48 °F (2006)
Cooling Degree Days 6    
Growing Degree Days 22 (Base 50)    
Moisture  
Dew Point 59 °F    
Average Humidity 70    
Maximum Humidity 100    
Minimum Humidity 35    
Precipitation  
Precipitation 0.00 in 0.03 in - ()
Sea Level Pressure  
Sea Level Pressure 29.98 in    
Wind  
Wind Speed 6 mph ()    
Max Wind Speed 16 mph    
Max Gust Speed -    
Visibility 6.1 miles    
Events      
Averages and records for this station are not official NWS values.
T = Trace of Precipitation, MM = Missing Value Source: Averaged Metar Reports

Daily Weather History Graph

Daily Weather History Graph

Search for Another Location

Airport or City:

Trip Planner

Search our weather history database for the weather conditions in past years. The results will help you decide how hot, cold, wet, or windy it might be!

Date:

Astronomy

May. 06, 2013 Rise Set
Actual Time 5:59 AM CEST 7:54 PM CEST
Civil Twilight 5:31 AM CEST 8:23 PM CEST
Nautical Twilight 4:56 AM CEST 8:57 PM CEST
Astronomical Twilight 4:19 AM CEST 9:34 PM CEST
Moon 3:48 AM CEST (5/6) 4:40 PM CEST (5/6)
Length of Visible Light 14h 51m
Length of Day
13h 54m
Waning Crescent, 13% of the Moon is Illuminated
May 6
Waning Crescent
May 10
New
May 18
First Quarter
May 25
Full
May 31
Last Quarter

Hourly Weather History & Observations

Time (CEST) Temp. Dew Point Humidity Pressure Visibility Wind Dir Wind Speed Gust Speed Precip Events Conditions
12:55 AM 66.2 °F 64.4 °F 94% 29.95 in 6.2 mi NW 3.5 mph - N/A   Scattered Clouds
1:55 AM 66.2 °F 64.4 °F 94% 29.95 in 6.2 mi Calm Calm - N/A   Scattered Clouds
2:00 AM 67 °F 65 °F 92% 29.95 in 6 mi Calm Calm - -   Partly Cloudy
2:55 AM 64.4 °F 64.4 °F 100% 29.92 in 6.2 mi West 5.8 mph - N/A   Scattered Clouds
3:55 AM 64.4 °F 64.4 °F 100% 29.92 in 6.2 mi West 6.9 mph - N/A   Scattered Clouds
4:55 AM 64.4 °F 64.4 °F 100% 29.92 in 6.2 mi WNW 4.6 mph - N/A   Scattered Clouds
5:00 AM 64 °F 64 °F 99% 29.94 in 6 mi WNW 4.6 mph - -   Partly Cloudy
5:55 AM 62.6 °F 62.6 °F 100% 29.92 in 6.2 mi WNW 5.8 mph - N/A   Partly Cloudy
6:55 AM 62.6 °F 62.6 °F 100% 29.95 in 6.2 mi WNW 3.5 mph - N/A   Partly Cloudy
7:55 AM 64.4 °F 60.8 °F 88% 29.95 in 6.2 mi West 5.8 mph - N/A   Mostly Cloudy
8:00 AM 64 °F 61 °F 88% 29.96 in 6 mi West 5.8 mph - -   Scattered Clouds
8:55 AM 68.0 °F 60.8 °F 78% 29.95 in 6.2 mi West 8.1 mph - N/A   Mostly Cloudy
9:55 AM 73.4 °F 59.0 °F 61% 29.98 in 6.2 mi West 16.1 mph - N/A   Scattered Clouds
10:55 AM 77.0 °F 55.4 °F 47% 29.98 in 6.2 mi West 11.5 mph - N/A   Scattered Clouds
11:00 AM 77 °F 56 °F 37% 29.99 in 6 mi West 11.5 mph - -   Scattered Clouds
11:55 AM 78.8 °F 53.6 °F 42% 29.98 in 6.2 mi West 12.7 mph - N/A   Scattered Clouds
12:55 PM 82.4 °F 51.8 °F 35% 29.98 in 6.2 mi WNW 12.7 mph - N/A   Scattered Clouds
1:55 PM 78.8 °F 59.0 °F 51% 29.98 in 6.2 mi East 16.1 mph - N/A   Scattered Clouds
2:00 PM 79 °F 59 °F 39% 29.99 in 6 mi East 16.1 mph - -   Scattered Clouds
2:55 PM 77.0 °F 62.6 °F 61% 29.98 in 6.2 mi East 15.0 mph - N/A   Scattered Clouds
4:55 PM 75.2 °F 60.8 °F 61% 29.98 in 6.2 mi East 10.4 mph - N/A   Scattered Clouds
5:00 PM 76 °F 61 °F 51% 29.98 in 6 mi East 10.4 mph - -   Scattered Clouds
5:55 PM 73.4 °F 55.4 °F 53% 29.98 in 6.2 mi East 9.2 mph - N/A   Scattered Clouds
6:55 PM 73.4 °F 59.0 °F 61% 29.98 in 6.2 mi ESE 6.9 mph - N/A   Scattered Clouds
7:55 PM 71.6 °F 55.4 °F 57% 29.98 in 6.2 mi WNW 10.4 mph - N/A   Scattered Clouds
8:00 PM 72 °F 55 °F 45% 30.00 in 6 mi WNW 10.4 mph - -   Scattered Clouds
8:55 PM 66.2 °F 50.0 °F 56% 30.01 in - West 9.2 mph - N/A   Clear
9:55 PM 64.4 °F 50.0 °F 59% 30.04 in - West 8.1 mph - N/A   Clear
10:55 PM 62.6 °F 53.6 °F 72% 30.04 in - West 4.6 mph - N/A   Clear
11:00 PM 63 °F 53 °F 60% 30.05 in 6 mi West 4.6 mph - -  
11:55 PM 60.8 °F 53.6 °F 77% 30.06 in - West 6.9 mph - N/A   Clear